La Tuque, Quebec

9:49 AM EST on December 07, 2016 (GMT -0500)
La Tuque

Weather History for CWDQ - July, 2013

Change the Weather History Date:

Wednesday, July 31, 2013

  Actual Average Record
Temperature  
Mean Temperature 65 °F -  
Max Temperature 80 °F - - ()
Min Temperature 50 °F - - ()
Growing Degree Days 15 (Base 50)    
Moisture  
Dew Point 57 °F    
Average Humidity 78    
Maximum Humidity 100    
Minimum Humidity 38    
Precipitation  
Precipitation 0.00 in - - ()
Sea Level Pressure  
Sea Level Pressure 30.03 in    
Wind  
Wind Speed 2 mph ()    
Max Wind Speed 5 mph    
Max Gust Speed -    
T = Trace of Precipitation, MM = Missing Value Source: Averaged Metar Reports

Daily Weather History Graph

Daily Weather History Graph

Search for Another Location

Airport or City:

Trip Planner

Search our weather history database for the weather conditions in past years. The results will help you decide how hot, cold, wet, or windy it might be!

Date:

Astronomy

Jul. 31, 2013 Rise Set
Actual Time 5:28 AM EDT 8:25 PM EDT
Civil Twilight 4:52 AM EDT 9:01 PM EDT
Nautical Twilight 4:05 AM EDT 9:47 PM EDT
Astronomical Twilight 3:09 AM EDT 10:43 PM EDT
Moon 12:22 AM EDT (7/31) 3:40 PM EDT (7/31)
Length of Visible Light 16h 09m
Length of Day
14h 57m
Waning Crescent, 32% of the Moon is Illuminated
Jul 31
Waning Crescent
Aug 6
New
Aug 14
First Quarter
Aug 20
Full
Aug 28
Last Quarter

Hourly Weather History & Observations

Time (EDT) Temp. Dew Point Humidity Pressure Visibility Wind Dir Wind Speed Gust Speed Precip Events Conditions
12:00 AM 55.9 °F 55.8 °F 99% 30.05 in - SE 2.3 mph - N/A   Unknown
1:00 AM 52.9 °F 52.7 °F 99% 30.05 in - East 2.3 mph - N/A   Unknown
2:00 AM 53 °F 53 °F 100% 30.06 in - ESE 2.3 mph - -  
2:00 AM 53.1 °F 53.1 °F 100% 30.06 in - ESE 2.3 mph - N/A   Unknown
3:00 AM 52.0 °F 52.0 °F 100% 30.06 in - East 2.3 mph - N/A   Unknown
4:00 AM 51.1 °F 51.1 °F 100% 30.06 in - ESE 2.3 mph - N/A   Unknown
5:00 AM 51.3 °F 51.3 °F 100% 30.07 in - ESE 2.3 mph - N/A   Unknown
6:00 AM 50.5 °F 50.5 °F 100% 30.07 in - ESE 2.3 mph - N/A   Unknown
7:00 AM 52.2 °F 52.2 °F 100% 30.08 in - East 1.2 mph - N/A   Unknown
8:00 AM 54 °F 54 °F 100% 30.08 in - SSW 2.3 mph - -  
8:00 AM 54.3 °F 54.3 °F 100% 30.08 in - SSW 2.3 mph - N/A   Unknown
9:00 AM 58.5 °F 58.5 °F 100% 30.08 in - SW 1.2 mph - N/A   Unknown
10:00 AM 66.6 °F 60.8 °F 82% 30.06 in - SE 1.2 mph - N/A   Unknown
11:00 AM 70.5 °F 61.9 °F 74% 30.06 in - South 2.3 mph - N/A   Unknown
12:00 PM 75.0 °F 61.9 °F 64% 30.04 in - South 2.3 mph - N/A   Unknown
1:00 PM 77.0 °F 57.2 °F 50% 30.03 in - SSW 3.5 mph - N/A   Unknown
2:00 PM 77 °F 56 °F 38% 30.01 in - South 2.3 mph - -  
2:00 PM 76.6 °F 56.3 °F 49% 30.01 in - South 2.3 mph - N/A   Unknown
3:00 PM 78.4 °F 59.5 °F 52% 30.00 in - ESE 3.5 mph - N/A   Unknown
4:00 PM 78.6 °F 54.9 °F 44% 29.99 in - SSW 2.3 mph - N/A   Unknown
5:00 PM 79.3 °F 55.4 °F 44% 29.97 in - NNW 1.2 mph - N/A   Unknown
6:00 PM 78.3 °F 55.6 °F 45% 29.96 in - SE 3.5 mph - N/A   Unknown
7:00 PM 76.6 °F 61.3 °F 59% 29.96 in - SSE 4.6 mph - N/A   Unknown
8:00 PM 72 °F 63 °F 65% 29.97 in - South 2.3 mph - -  
8:00 PM 72.1 °F 62.6 °F 72% 29.97 in - South 2.3 mph - N/A   Unknown
9:00 PM 67.3 °F 61.9 °F 83% 29.98 in - SE 2.3 mph - N/A   Unknown
10:00 PM 66.0 °F 62.1 °F 87% 29.98 in - SE 2.3 mph - N/A   Unknown
11:00 PM 65.5 °F 62.4 °F 90% 29.99 in - SE 2.3 mph - N/A   Unknown